AirNav   Pilot Hours Calculator
 
 939 users online  

2I3 Rough River State Park Airport
Falls of Rough, Kentucky, USA

GOING TO FALLS OF ROUGH?


FAA INFORMATION EFFECTIVE 22 APRIL 2021

Location

FAA Identifier: 2I3
Lat/Long: 37-36-35.3000N 086-30-25.8000W
37-36.588333N 086-30.430000W
37.6098056,-86.5071667
(estimated)
Elevation: 577 ft. / 175.9 m (surveyed)
Variation: 01W (1985)
From city: 3 miles NE of FALLS-OF-ROUGH, KY
Time zone: UTC -5 (UTC -6 during Standard Time)
Zip code: 40119

Airport Operations

Airport use: Open to the public
Activation date: 05/1963
Control tower: no
ARTCC: INDIANAPOLIS CENTER
FSS: LOUISVILLE FLIGHT SERVICE STATION
NOTAMs facility: LOU (NOTAM-D service available)
Attendance: UNATNDD
Wind indicator: lighted
Segmented circle: yes
Lights: ACTVT MIRL RY 2/20; REIL RY 2 & 20 - CTAF. PAPI RY 2 & 20 OPER CONTINUOUSLY.
Beacon: white-green (lighted land airport)
Operates sunset to sunrise.

Airport Communications

CTAF/UNICOM: 122.8
WX AWOS-3PT at JQD (19 nm SW): 132.1 (270-298-7936)

Nearby radio navigation aids

VOR radial/distance  VOR name  Freq  Var
MYSr217/(21.1)MYSTIC VOR108.2001W
FTKr236/31.0FORT KNOX VOR/DME109.6001W
OWBr108/32.3OWENSBORO VOR/DME108.6004W
EWOr267/39.5NEW HOPE VOR/DME110.8001E

 
NDB name  Hdg/Dist  Freq  Var  ID
GODMAN233/32.739603WGOI --. --- ..

Airport Services

Parking: tiedowns
Airframe service: NONE
Powerplant service: NONE
Bottled oxygen: NONE
Bulk oxygen: NONE

Runway Information

Runway 2/20

Dimensions: 3200 x 75 ft. / 975 x 23 m
Surface: asphalt, in good condition
Weight bearing capacity: 
Single wheel: 8.0
Runway edge lights: medium intensity
RUNWAY 2  RUNWAY 20
Latitude: 37-36.336833N37-36.841000N
Longitude: 086-30.527167W086-30.332667W
Traffic pattern: leftleft
Markings: basic, in good conditionbasic, in good condition
Visual slope indicator: 2-light PAPI on left (4.00 degrees glide path)4-light PAPI on left (5.00 degrees glide path)
Runway end identifier lights: yesyes
Obstructions: none44 ft. trees, 878 ft. from runway, 144 ft. left of centerline, 15:1 slope to clear

Airport Ownership and Management from official FAA records

Ownership: Publicly-owned
Owner: KY DEPT OF PARKS
2 HUDSON HOLLOW UNIT 1
FRANKFORT, KY 40601
Phone (502) 892-3367
Manager: MICHAEL RICKS, PARK MANAGER
450 LODGE ROAD
FALLS OF ROUGH, KY 40119
Phone 270-257-2311

Airport Operational Statistics

Aircraft operations: avg 25/day *
78% transient general aviation
13% local general aviation
7% military
2% air taxi
* for 12-month period ending 04 December 2019

Additional Remarks

TRANSPORTATION TO PARK LODGE AVAIL 270-257-2311.
FOR CD CTC INDIANAPOLIS ARTCC AT 317-247-2411.

Instrument Procedures

There are no published instrument procedures at 2I3.

Some nearby airports with instrument procedures:

I93 - Breckinridge County Airport (11 nm N)
M20 - Leitchfield-Grayson County Airport (17 nm SE)
KJQD - Ohio County Airport (19 nm SW)
KTEL - Perry County Municipal Airport (26 nm N)
KY8 - Hancock County Airport/Ron Lewis Field (26 nm NW)
 
Loc | Ops | Rwys | IFR | FBO | Links
Com | Nav | Svcs | Stats | Notes
Area around 2I3 (Rough River State Park Airport)
 
Road maps at: MapQuest Bing Google
 
Aerial photo
WARNING: Photo may not be current or correct
Aerial photo of 2I3 (Rough River State Park Airport)
Taken in December 2006

Do you have a better or more recent aerial photo of Rough River State Park Airport that you would like to share? If so, please send us your photo.

 
Sectional chart

 
Airport distance calculator
Flying to Rough River State Park Airport? Find the distance to fly.

From to 2I3

Sunrise and sunset
Times for 22-Apr-2021
 Local
(UTC-5)
 Zulu
(UTC)
Morning civil twilight05:3510:35
Sunrise06:0311:03
Sunset19:2700:27
Evening civil twilight19:5400:54

Current date and time
Zulu (UTC)  23-Apr-2021 02:50:18
Local (UTC-5)  22-Apr-2021 21:50:18
 
METAR
KKY8 
26nm NW 
230135Z AUTO 00000KT 10SM CLR 07/00 A3016 RMK A01
KFTK 
30nm NE 
230156Z AUTO 00000KT 10SM CLR 06/M03 A3016 RMK AO2 SLP219 T00621035 $
KEKX 
31nm E 
230235Z AUTO 00000KT 10SM CLR 04/M02 A3017 RMK AO2 T00361016
KOWB 
32nm W 
230156Z 03003KT 10SM CLR 10/M06 A3016 RMK AO2 SLP214 T01001056
KM21 
39nm SW 
230235Z AUTO 00000KT 10SM CLR 05/00 A3017 RMK AO2 T00520001
KBWG 
39nm S 
230153Z AUTO 00000KT 10SM CLR 09/00 A3016 RMK AO2 SLP214 T00890000
KGLW 
44nm SE 
230235Z AUTO 00000KT 10SM CLR 05/00 A3017 RMK AO2 T00480001
KHNB 
44nm NW 
230156Z AUTO 00000KT 10SM CLR 07/M03 A3017 RMK AO2 SLP217 T00721033
K2I0 
45nm W 
230235Z AUTO 00000KT 10SM CLR 08/M03 A3017 RMK AO2 T00811029
KI19 
46nm NW 
230237Z AUTO 23005KT 10SM CLR 05/M02 A3015 RMK AO2 T00451021
TAF
KFTK 
30nm NE 
222115Z 2219/2401 27010G15KT 9999 SCT060 QNH3013INS BECMG 2222/2223 VRB06KT 9999 FEW060 QNH3013INS BECMG 2311/2312 17009KT 9999 VCSH BKN050 610503 QNH3002INS TEMPO 2313/2319 18012G18KT BECMG 2322/2323 14008KT 9999 NSW BKN050 QNH3001INS TX14/2319Z TN03/2308Z LAST NO AMDS AFT 2303 NEXT 2311
KOWB 
32nm W 
221720Z 2218/2318 31008G15KT P6SM SCT060 FM222300 28005KT P6SM SKC FM230700 14003KT P6SM BKN110 FM231400 16009KT P6SM BKN060
NOTAMs
Click for the latest NOTAMs
NOTAMs are issued by the DoD/FAA and will open in a separate window not controlled by AirNav.

 

 
 

Would you like to see your business listed on this page?

 If your business provides an interesting product or service to pilots, flight crews, aircraft, or users of the Rough River State Park Airport, you should consider listing it here.  To start the listing process, click on the button below
 
Add a business
 

Other Pages about Rough River State Park Airport

Update a link
 
Copyright © AirNav, LLC. All rights reserved. Privacy Policy  Contact